Probability
0 0 0 0 0 0 0 0 0 0 0 0 0 0 0 0 0 0 0 0 0 0 0 0 0 0 0 0 0 0 0 0 0 0 0 0 0 0
0 0 0 0 0 0 0 0 0 0 0 0 0 0 0 0 0 0 0 0 0 0 0 0 0 0 0 0 0 0 0 0 0 0 0 0 0 0
0 0 0 0 0 0 0 0 0 0 0 0 0 0 0 0 0 0 0 0 0 0 0 0 0 0 0 0 0 0 0 0 0 0 0 0 0 0
0 0 0 0 0 0 0 0 0 0 0 0 0 0 0 0 0 0 0 0 0 0 0 0 0 0 0 0 0 0 0 0 0 0 0 0 0 0
0 0 0 0 0 0 0 0 0 0 0 0 0 0 0 0 0 0 0 0 0 0 0 0 0 0 0 0 0 0 0 0 0 0 0 0 0 0
0 0 0 0 0 0 0 0 0 0 0 0 0 0 0 0 0 0 0 0 0 0 0 0 0 0 0 0 0 0 0 0 0 0 0 0 0 0
0 0 0 0 0 0 0 0 0 0 0 0 0 0 0 0 0 0 0 0 0 0 0 0 0 0 0 0 0 0 0 0 0 0 0 0 0 0
0 0 0 0 0 0 0 0 0 0 0 0 0 0 0 0 0 0 0 0 0 0 0 0 0 0 0 0 0 0 0 0 0 0 0 0 0 0
0 0 0 0 0 0 0 0 0 0 0 0 0 0 0 0 0 0 0 0 0 0 0 0 0 0 0 0 0 0 0 0 0 0 0 0 0 0
0 0 0 0 0 0 0 0 0 0 0 0 0 0 0 0 0 0 0 0 0 0 0 0 0 0 0 0 0 0 0 0 0 0 0 0 0 0
0 0 0 0 0 0 0 0 0 0 0 0 0 0 0 0 0 0 0 0 0 0 0 0 0 0 0 0 0 0 0 0 0 0 0 0 0 0
0 0 0 0 0 0 0 0 0 0 0 0 0 0 0 0 0 0 0 0 0 0 0 0 0 0 0 0 0 0 0 0 0 0 0 0 0 0
0 0 0 0 0 0 0 0 0 0 0 0 0 0 0 0 0 0 0 0 0 0 0 0 0 0 0 0 0 0 0 0 0 0 0 0 0 0
0 0 0 0 0 0 0 0 0 0 0 0 0 0 0 0 0 0 0 0 0 0 0 0 0 0 0 0 0 0 0 0 0 0 0 0 0 0
0 0 0 0 0 0 0 0 0 0 0 0 0 0 0 0 0 0 0 0 0 0 0 0 0 0 0 0 0 0 0 0 0 0 0 0 0 0
0 0 0 0 0 0 0 0 0 0 0 0 0 0 0 0 0 0 0 0 0 0 0 0 0 0 0 0 0 0 0 0 0 0 0 0 0 0
0 0 0 0 0 0 0 0 0 0 0 0 0 0 0 0 0 0 0 0 0 0 0 0 0 0 0 0 0 0 0 0 0 0 0 0 0 0
0 0 0 0 0 0 0 0 0 0 0 0 0 0 0 0 0 0 0 0 0 0 0 0 0 0 0 0 0 0 0 0 0 0 0 0 0 0
0 0 0 0 0 0 0 0 0 0 0 0 0 0 0 0 0 0 0 0 0 0 0 0 0 0 0 0 0 0 0 0 0 0 0 0 0 0
0 0 0 0 0 0 0 0 0 0 0 0 0 0 0 0 0 0 0 0 0 0 0 0 0 0 0 0 0 0 0 0 0 0 0 0 0 0
0 0 0 0 0 0 0 0 0 0 0 0 0 0 0 0 0 0 0 0 0 0 0 0 0 0 0 0 0 0 0 0 0 0 0 0 0 0
0 0 0 0 0 0 0 0 0 0 0 0 0 0 0 0 0 0 0 0 0 0 0 0 0 0 0 0 0 0 0 0 0 0 0 0 0 0
0 0 0 0 0 0 0 0 0 0 0 0 0 0 0 0 0 0 0 0 0 0 0 0 0 0 0 0 0 0 0 0 0 0 0 0 0 0
Wind_Speed
6 6 5 5 5 5 5 4 5 9 10 4 3 3 4 5 11 8 7 16 21 23 23 21 21 22 22 22 22 22 22 21 20 19 18 17 16 16
5 7 6 5 5 5 5 5 5 7 10 5 4 5 6 6 11 8 9 18 21 22 23 23 23 23 24 24 24 24 24 24 23 22 21 20 19 18
7 8 8 7 7 6 5 6 6 6 12 10 7 7 7 8 9 8 8 9 9 19 23 25 25 24 24 25 26 25 25 25 24 23 22 21 20 20
10 9 10 8 9 7 7 8 8 7 10 15 11 8 9 8 9 10 8 8 8 17 23 25 26 26 25 26 26 25 24 24 23 23 23 23 23 22
12 12 12 10 11 8 8 10 9 10 9 12 13 8 8 7 8 8 8 8 8 13 20 24 26 27 27 27 27 25 23 22 21 21 22 24 24 23
13 13 13 12 13 12 11 11 10 11 11 12 12 9 9 8 8 8 8 7 8 8 15 17 20 25 29 29 26 23 22 24 24 23 22 22 23 23
14 14 14 17 21 18 15 13 12 11 11 12 13 12 10 7 8 6 10 7 9 7 8 9 10 11 14 22 24 24 25 26 26 24 23 23 23 23
16 15 15 16 19 23 26 25 23 17 13 13 14 15 14 9 7 8 10 10 10 4 8 10 8 12 11 10 20 27 28 29 28 27 26 25 25 24
15 15 13 13 15 16 19 23 22 24 25 19 19 19 17 13 12 13 12 13 14 6 6 10 8 13 9 12 25 28 28 30 30 29 29 28 27 25
14 15 16 16 15 18 17 16 17 16 18 16 16 18 17 16 15 17 17 17 16 9 9 13 9 10 7 9 22 28 29 29 30 31 30 30 28 27
14 15 16 16 22 26 20 16 17 16 20 25 27 26 29 30 24 15 14 15 17 14 10 13 11 7 7 10 15 27 29 30 30 31 31 31 29 27
12 14 18 22 25 27 19 16 17 16 15 16 19 22 21 21 26 19 14 15 16 15 10 11 10 6 6 7 10 11 17 25 30 31 31 32 30 19
12 12 13 25 29 29 27 19 22 23 16 15 15 14 13 13 13 14 15 15 17 17 8 9 10 9 9 4 4 9 11 11 14 20 27 32 32 26
13 13 15 28 31 32 26 25 31 27 13 11 12 12 12 12 12 14 17 18 19 22 16 13 12 11 10 9 6 5 8 9 11 11 11 22 29 34
14 23 28 32 30 22 24 29 23 13 11 13 14 14 13 13 13 13 14 17 20 21 20 20 18 13 12 12 8 5 6 8 10 11 11 12 13 15
13 16 23 25 22 21 17 15 11 11 12 14 14 14 12 12 12 12 13 13 15 16 18 21 21 20 16 13 10 8 8 8 10 11 11 12 12 12
13 8 8 10 10 10 10 10 10 11 11 12 13 13 13 13 13 12 12 13 15 16 14 13 16 17 17 12 10 11 10 9 9 12 12 12 13 14
12 7 9 9 10 11 12 12 11 11 12 12 12 12 12 13 13 12 13 14 14 14 13 11 11 11 11 13 14 11 11 10 9 10 11 12 13 12
6 7 8 9 10 11 11 12 13 13 13 12 12 12 12 12 12 13 13 13 13 13 12 10 10 11 12 10 7 11 10 9 9 10 10 10 10 10
4 6 8 9 10 11 11 12 13 13 13 12 12 11 11 11 12 13 13 13 12 11 9 8 9 10 11 7 5 3 10 9 9 11 9 7 4 7
7 7 8 9 10 10 11 12 12 13 14 13 12 11 10 10 11 12 12 14 12 9 8 7 6 5 3 5 5 1 1 8 8 6 7 7 5 5
7 8 8 9 10 10 11 11 12 12 13 12 12 12 11 10 11 12 11 10 8 6 4 2 5 4 3 4 4 4 3 3 5 6 5 4 3 6
8 8 9 9 9 10 10 12 13 12 12 12 12 12 12 11 10 9 8 6 3 1 3 4 3 2 3 4 5 5 7 7 7 8 8 8 4 4
Wind_Direction
313 307 301 297 294 290 286 277 279 294 297 271 260 254 253 255 265 264 246 252 254 254 252 247 239 233 231 233 236 237 236 232 228 226 225 223 222 222
297 295 292 290 290 285 282 278 263 265 278 283 279 277 269 262 266 259 248 256 254 253 252 248 242 234 232 233 235 236 235 232 227 223 221 221 219 219
295 291 287 287 285 283 279 276 272 264 273 281 280 284 275 269 273 266 257 253 252 249 248 248 245 239 232 231 233 234 234 232 228 223 219 219 218 218
300 294 289 287 279 278 277 274 272 265 270 280 283 284 277 270 268 267 263 256 248 251 249 247 245 243 237 232 231 231 231 230 227 223 220 218 218 217
297 296 295 292 289 282 274 275 275 274 268 275 278 276 278 273 272 266 257 257 253 255 254 250 245 243 240 235 231 228 226 226 225 222 219 218 218 217
298 297 296 293 292 291 285 279 277 276 273 274 278 275 271 270 267 271 270 251 253 248 252 249 244 241 239 236 232 226 222 221 222 221 218 216 216 216
301 299 298 298 297 294 290 288 285 281 280 278 279 279 272 264 264 261 268 268 256 237 246 247 242 238 233 235 230 223 221 222 222 221 217 214 213 214
303 303 301 295 294 295 294 292 289 286 285 282 281 278 278 273 270 268 271 272 271 227 224 242 227 238 232 225 229 226 222 222 221 220 218 215 213 212
299 298 297 297 297 293 291 290 289 287 284 282 280 279 284 287 288 281 272 267 265 244 223 248 225 240 233 232 232 229 225 221 221 220 219 217 214 212
293 293 293 292 291 290 289 285 284 283 281 280 277 280 282 283 279 280 281 280 275 257 226 254 237 237 226 224 235 233 230 226 222 220 220 219 216 213
293 289 287 286 286 288 287 283 283 281 283 280 278 279 281 284 284 280 271 266 265 258 229 244 248 235 227 225 227 230 232 230 226 223 220 219 217 214
287 283 282 283 284 287 284 280 278 276 273 270 272 275 277 278 279 274 274 270 268 263 233 232 240 213 240 225 214 216 226 230 228 226 222 219 215 211
291 290 287 289 289 288 285 278 274 276 271 266 266 266 265 265 265 263 260 260 263 262 254 232 233 215 222 223 212 210 210 214 221 225 224 220 216 209
293 290 287 290 291 291 288 281 284 286 279 275 271 269 266 264 262 261 261 260 258 261 262 253 247 227 219 221 215 206 205 207 211 217 215 218 217 214
292 294 298 301 303 300 295 294 292 284 277 273 270 269 267 266 266 264 263 263 262 259 256 249 246 239 224 222 209 181 189 203 206 212 214 213 210 206
299 303 311 313 311 309 307 304 296 286 281 277 275 274 273 269 265 262 263 262 262 260 251 245 240 236 232 222 208 195 185 187 194 206 211 215 215 211
327 334 325 319 315 312 308 305 300 295 288 280 277 275 272 269 266 263 262 259 257 258 254 243 234 230 229 219 214 209 199 196 190 193 203 213 215 214
345 329 318 315 314 313 312 310 306 300 294 289 282 275 272 270 269 266 264 258 253 252 249 243 229 220 217 223 215 210 202 200 195 193 198 209 215 212
345 314 312 313 312 310 309 307 306 304 299 291 284 279 273 270 269 269 269 262 252 249 243 233 221 216 214 215 211 212 203 192 188 195 202 207 214 208
315 308 311 310 309 309 309 308 307 308 307 302 294 284 277 272 270 269 270 262 256 251 239 226 213 208 213 207 181 212 206 186 187 197 200 203 207 205
316 310 306 307 308 307 306 307 308 309 310 311 306 297 288 280 274 272 273 267 260 251 238 222 208 184 134 115 115 130 228 194 180 185 184 185 180 178
304 307 308 307 307 307 308 309 312 312 315 315 314 311 305 295 286 281 277 276 264 250 233 156 131 131 134 151 143 140 121 110 121 109 119 132 163 187
305 306 306 308 307 308 310 310 311 313 315 317 317 315 313 309 303 295 289 281 271 216 128 119 112 97 99 112 120 120 116 105 90 78 52 54 69 69